Other Public Products
Issued by NWS Charleston, SC

Home | Current Version | Previous Version | Text Only | Print | Product List | Glossary On
Versions: 1 2 3 4 5 6 7 8 9 10 11 12 13 14 15 16 17 18 19 20 21 22 23 24 25 26 27 28 29 30 31 32 33 34 35 36 37 38 39 40 41 42 43 44 45 46 47 48 49 50
292
FPUS82 KCHS 230927
OPUCHS

TEST...KCHS/KSAV Gateway Observations...TEST
National Weather Service Charleston SC
500 AM EDT FRI JUN 23 2017

NOTE: "fair" indicates few or no clouds below 12,000 feet with no
significant weather and/or obstructions to visibility.

SCZ050-WAZ558-NCZ071-TXZ119-213-PAZ071-DCZ001-FLZ074-172-MI076-
NYZ176-178-MAZ016-IL014-TNZ027-NJZ106-GAZ044-MD014-231000-

...Gateway Observations for Charleston International...

CITY           SKY/WX    TMP DP  RH WIND       PRES   REMARKS
Chas Airport   CLOUDY    77  74  90 SW5       30.03S
Seattle        CLEAR     61  47  59 N9        30.23F
Charlotte      CLOUDY    75  72  90 SW9       30.01S
Dallas DFW     CLOUDY    78  73  84 S6        29.71R
Dallas Love    CLOUDY    79  72  79 S5        29.72S
Philladelphia  CLOUDY    77  72  84 SW7       29.85F
Wash National  LGT RAIN  78  72  81 SW10      29.88S
Baltimore      CLOUDY    76  72  87 SW7       29.85F
Miami          PTCLDY    82  72  71 E7        30.01S
Detroit        CLOUDY    73  68  84 SW14      29.68F
Newark         MOCLDY    77  71  82 SW8       29.82F
Laguardia      MOCLDY    80  72  76 SW8       29.82S
J F K          CLOUDY    71  70  96 S7        29.84S
Boston Logan   MOCLDY    68  61  78 VRB3      29.81S
Ft. Lauderdale PTCLDY    80  74  81 SE9       30.00F
Chicago O`Hare CLOUDY    77  71  82 SW13      29.64S
Chicago Midway CLOUDY    77  72  84 SW12      29.64F
Houston Bush   MOCLDY    80  76  87 S7        29.76F
Houston Hobby  CLOUDY    81  77  88 S8        29.76S
Nashville      MOCLDY    77  72  84 S8        29.85S
Atlanta        MOCLDY    73  72  96 S7        30.02S

$$

GAZ044-118-TXZ119-213-NCZ071-DCZ001-MDZ014-506-PAZ021-071-NJZ106-
NYZ176-178-MAZ106-OHZ011-021-055-MIZ076-KYZ091-ILZ014-INZ047-
MNZ060-ONZ431-231000-

...Gateway Observations for Savannah International...

CITY           SKY/WX    TMP DP  RH WIND       PRES   REMARKS
Savannah Arpt  MOCLDY    78  73  84 S5        30.03S
Atlanta        MOCLDY    73  72  96 S7        30.02S
Charlotte      CLOUDY    75  72  90 SW9       30.01S
Dallas DFW     CLOUDY    78  73  84 S6        29.71R
Houston Bush   MOCLDY    80  76  87 S7        29.76F
Wash National  LGT RAIN  78  72  81 SW10      29.88S
Wash Dulles    LGT RAIN  73  70  90 S6        29.88S
Baltimore      CLOUDY    76  72  87 SW7       29.85F
Philadelphia   CLOUDY    77  72  84 SW7       29.85F
Newark         MOCLDY    77  71  82 SW8       29.82F
Laguardia      MOCLDY    80  72  76 SW8       29.82S
J F K          CLOUDY    71  70  96 S7        29.84S
Boston         MOCLDY    68  61  78 VRB3      29.81S
Pittsburg      LGT RAIN  69  69 100 S8        29.80F FOG
Akron          CLOUDY    72  65  78 SW10      29.78F
Cleveland      MOCLDY    74  66  76 S9        29.73F
Cincinnati     CLOUDY    73  72  96 S12       29.79S
Columbus       DRIZZLE   70  70 100 S10       29.78S
Detroit        CLOUDY    73  68  84 SW14      29.68F
Chicago O`Hare CLOUDY    77  71  82 SW13      29.64S
Minneapolis    CLEAR     60  55  83 SW6       29.72F
Indianapolis   CLOUDY    75  72  90 S15       29.72F
Toronto Canada CLOUDY    68  68 100 S3        29.68S

$$




USA.gov is the U.S. government's official web portal to all federal, state and local government web resources and services.